{"data":{"norad_id":47397,"epoch":"2026-05-25T03:46:24.093120Z","epoch_age_seconds":64554,"freshness":"FRESH","line1":"1 47397U 21005BA  26145.15722330  .00036823  00000+0  11688-2 0  9996","line2":"2 47397  53.1593  67.0341 0001474 124.4914 235.6227 15.32345583294742","mean_motion":15.32345583,"eccentricity":0.0001474,"inclination_deg":53.1593,"raan_deg":67.0341,"arg_perigee_deg":124.4914,"mean_anomaly_deg":235.6227,"bstar":0.0011688,"rev_number":29474,"period_min":93.973579848796,"perigee_km":467.80698067099,"apogee_km":469.82546248071,"semimajor_km":6846.9532215758,"source":"CELESTRAK","updated_at":"2026-05-25T13:38:16.554007Z"}}